Weather observations for the past three days for
Charleston Executive Airport
Imperial (Metric)
Date Time (edt) Wind (mph) Vis. (mi.) Weather Sky Cond. Temperature (ºF) Relative Humidity Wind Chill (°F) Heat Index (°F) Pressure Precipitation (in)
Air Dwpt 6 hour altimeter (in) sea level (mb) 1 hr 3 hr 6 hr
Max. Min.
15 19:35 SW 8 10.00 Fair CLR 87.8 77 70% 100 30 0.0
15 19:15 SW 7 10.00 Fair CLR 87.8 78.8 75% 102 30 0.0
15 18:55 SW 8 G 14 10.00 Fair CLR 87.8 78.8 75% 102 29.99 0.0
15 18:35 SW 7 10.00 Fair CLR 87.8 80.6 79% 105 29.98 0.0
15 18:15 SW 8 10.00 Fair CLR 87.8 80.6 79% 105 29.96 0.0
15 17:55 SW 10 10.00 Fair CLR 87.8 80.6 79% 105 29.98 0.0
15 17:35 SW 14 G 20 10.00 Thunderstorm in Vicinity CLR 87.8 80.6 79% 105 30 0.0
15 17:15 SW 12 10.00 Fair CLR 87.8 78.8 75% 102 29.99 0.0
15 16:55 S 12 10.00 Fair CLR 89.6 78.8 71% 105 29.97 0.0
15 16:35 S 14 10.00 Fair CLR 91.4 78.8 67% 108 29.97 0.0
15 16:15 S 14 10.00 Thunderstorm CLR 91.4 80.6 71% 111 29.97 0.0
15 15:55 S 14 10.00 Thunderstorm in Vicinity CLR 91.4 80.6 71% 111 29.98 0.0
15 15:35 S 16 10.00 Thunderstorm in Vicinity CLR 91.4 80.6 71% 111 29.98 0.0
15 15:15 S 15 10.00 Thunderstorm in Vicinity CLR 91.4 80.6 71% 111 30 0.0
15 14:55 S 12 G 21 10.00 Fair CLR 91.4 80.6 71% 111 30.01 0.0
15 14:35 S 15 10.00 Fair CLR 93.2 78.8 63% 110 30.01 0.0
15 14:15 S 14 10.00 Fair CLR 93.2 80.6 67% 113 30.02 0.0
15 13:55 S 13 10.00 Fair CLR 93.2 80.6 67% 113 30.03 0.0
15 13:35 S 12 G 17 10.00 Fair CLR 93.2 80.6 67% 113 30.03 0.0
15 13:15 S 13 10.00 Fair CLR 91.4 80.6 71% 111 30.04 0.0
15 12:55 S 9 10.00 Fair CLR 91.4 80.6 71% 111 30.04 0.0
15 12:35 S 12 10.00 Fair CLR 93.2 80.6 67% 113 30.05 0.0
15 12:15 Calm 10.00 Fair CLR 96.8 77 53% 112 30.05 0.0
15 11:55 Vrbl 3 10.00 Fair CLR 93.2 77 59% 107 30.06 0.0
15 11:35 Calm 10.00 Fair CLR 93.2 77 59% 107 30.06 0.0
15 11:15 W 6 10.00 Fair CLR 93.2 77 59% 107 30.07 0.0
15 10:55 SW 5 10.00 Fair CLR 93.2 77 59% 107 30.07 0.0
15 10:35 Vrbl 5 10.00 Fair CLR 91.4 77 63% 105 30.07 0.0
15 10:15 Vrbl 6 10.00 Fair CLR 89.6 77 67% 103 30.07 0.0
15 09:55 SW 7 10.00 Fair CLR 87.8 77 70% 100 30.08 0.0
15 09:35 S 6 10.00 Fair CLR 87.8 77 70% 100 30.08 0.0
15 09:15 W 6 10.00 Fair CLR 87.8 77 70% 100 30.07 0.0
15 08:55 SW 6 10.00 Fair CLR 86 77 75% 97 30.08 0.0
15 08:35 Vrbl 3 10.00 Fair CLR 86 77 75% 97 30.08 0.0
15 08:15 Vrbl 3 10.00 Fair CLR 84.2 77 79% 94 30.07 0.0
15 07:55 SW 3 10.00 Fair CLR 82.4 77 84% 91 30.07 0.0
15 07:35 Calm 10.00 Fair CLR 82.4 77 84% 91 30.07 0.0
15 07:15 Calm 10.00 Fair CLR 80.6 77 89% 87 30.06 0.0
15 06:55 Calm 10.00 Fair CLR 80.6 77 89% 87 30.05 0.0
15 06:35 Calm 10.00 Fair CLR 80.6 77 89% 87 30.04 0.0
15 06:15 SW 5 10.00 Fair CLR 80.6 77 89% 87 30.03 0.0
15 05:55 W 3 10.00 Fair CLR 80.6 77 89% 87 30.03 0.0
15 05:35 W 3 10.00 Fair CLR 80.6 77 89% 87 30.03 0.0
15 05:15 W 3 10.00 Fair CLR 80.6 77 89% 87 30.03 0.0
15 04:55 Calm 10.00 Fair CLR 80.6 77 89% 87 30.02 0.0
15 04:35 SW 5 10.00 Fair CLR 80.6 77 89% 87 30.02 0.0
15 04:15 SW 3 10.00 Fair CLR 82.4 78.8 89% 92 30.02 0.0
15 03:55 SW 5 10.00 Fair CLR 82.4 78.8 89% 92 30.02 0.0
15 03:35 SW 5 10.00 Fair CLR 82.4 78.8 89% 92 30.02 0.0
15 03:15 Calm 10.00 Fair CLR 82.4 78.8 89% 92 30.03 0.0
15 02:55 W 3 10.00 Fair CLR 84.2 78.8 84% 96 30.04 0.0
15 02:35 W 5 10.00 Mostly Cloudy FEW020 BKN080 84.2 78.8 84% 96 30.05 0.0
15 02:15 W 6 10.00 Partly Cloudy SCT080 84.2 78.8 84% 96 30.06 0.0
15 01:55 SW 8 G 15 10.00 Fair CLR 84.2 78.8 84% 96 30.06 0.0
15 01:35 SW 9 10.00 Fair CLR 84.2 78.8 84% 96 30.07 0.0
15 01:15 SW 10 G 16 10.00 Fair CLR 84.2 78.8 84% 96 30.07 0.0
15 00:55 SW 8 10.00 Fair CLR 84.2 78.8 84% 96 30.08 0.0
15 00:35 SW 8 10.00 Fair CLR 84.2 78.8 84% 96 30.08 0.0
15 00:15 SW 9 10.00 Fair CLR 84.2 78.8 84% 96 30.07 0.0
14 23:55 SW 9 10.00 Fair CLR 84.2 78.8 84% 96 30.08 0.0
14 23:35 S 10 10.00 Fair CLR 84.2 78.8 84% 96 30.08 0.0
14 23:15 SW 7 10.00 Fair CLR 84.2 80.6 89% 98 30.08 0.0
14 22:55 SW 8 10.00 Fair CLR 84.2 80.6 89% 98 30.08 0.0
14 22:35 SW 9 10.00 Fair CLR 84.2 80.6 89% 98 30.07 0.0
14 22:15 SW 8 10.00 Fair CLR 84.2 80.6 89% 98 30.07 0.0
14 21:55 SW 7 10.00 Fair CLR 84.2 78.8 84% 96 30.07 0.0
14 21:35 S 9 10.00 A Few Clouds FEW110 84.2 78.8 84% 96 30.07 0.0
14 21:15 S 8 10.00 Partly Cloudy SCT110 84.2 78.8 84% 96 30.07 0.0
14 20:55 S 7 10.00 A Few Clouds FEW110 84.2 80.6 89% 98 30.07 0.0
14 20:35 S 9 10.00 Fair CLR 86 78.8 79% 99 30.06 0.0
14 20:15 S 9 10.00 Fair CLR 86 78.8 79% 99 30.06 0.0
14 19:55 S 10 10.00 Fair CLR 86 78.8 79% 99 30.05 0.0 0.01
14 19:35 S 6 10.00 A Few Clouds FEW110 86 77 75% 97 30.05 0.0
14 19:15 S 5 10.00 Mostly Cloudy BKN100 86 75.2 70% 95 30.05 0.0
14 18:55 SE 5 10.00 A Few Clouds FEW090 84.2 73.4 70% 91 30.05 0.0
14 18:35 E 3 9.00 Light Drizzle FEW042 SCT075 BKN085 84.2 73.4 70% 91 30.05 0.0
14 18:15 NE 7 10.00 Thunderstorm SCT023 BKN040 OVC090 84.2 71.6 66% 90 30.07 0.0
14 17:55 N 9 G 16 9.00 Thunderstorm SCT019 SCT025 BKN070 84.2 73.4 70% 91 30.07 0.0
14 17:35 S 10 9.00 Thunderstorm in Vicinity CLR 89.6 80.6 75% 108 30.06 0.0
14 17:15 S 13 9.00 Thunderstorm in Vicinity CLR 91.4 80.6 71% 111 30.06 0.0
14 16:35 S 15 10.00 Thunderstorm in Vicinity CLR 91.4 80.6 71% 111 30.06 0.0
14 16:15 S 16 10.00 Thunderstorm in Vicinity CLR 91.4 80.6 71% 111 30.06 0.0
14 15:55 S 14 10.00 Fair CLR 91.4 80.6 71% 111 30.07 0.0
14 15:35 S 13 10.00 Thunderstorm in Vicinity CLR 91.4 80.6 71% 111 30.08 0.0
14 15:15 S 15 10.00 Thunderstorm in Vicinity CLR 91.4 80.6 71% 111 30.08 0.0
14 14:55 S 13 10.00 Fair CLR 93.2 78.8 63% 110 30.08 0.0
14 14:35 S 13 10.00 Fair CLR 93.2 78.8 63% 110 30.09 0.0
14 14:15 S 14 10.00 Partly Cloudy FEW037 FEW050 SCT065 93.2 80.6 67% 113 30.1 0.0
14 13:55 SE 8 G 15 10.00 Mostly Cloudy SCT036 SCT046 BKN050 91.4 78.8 67% 108 30.1 0.0
14 13:35 S 9 10.00 Mostly Cloudy BKN035 BKN048 BKN065 91.4 78.8 67% 108 30.11 0.0
14 13:15 SE 7 10.00 Overcast SCT030 BKN039 OVC055 89.6 78.8 71% 105 30.12 0.0
14 12:55 Vrbl 7 G 13 10.00 Overcast FEW030 BKN040 OVC090 89.6 78.8 71% 105 30.12 0.0
14 12:35 S 7 10.00 Mostly Cloudy SCT040 BKN055 BKN065 91.4 78.8 67% 108 30.13 0.0
14 12:15 Vrbl 5 10.00 A Few Clouds FEW042 FEW070 95 77 56% 110 30.13 0.0
14 11:55 Calm 10.00 Fair CLR 93.2 77 59% 107 30.13 0.0
14 11:35 Vrbl 6 10.00 Fair CLR 93.2 77 59% 107 30.13 0.0
14 11:15 NW 5 10.00 Fair CLR 93.2 75.2 56% 105 30.14 0.0
14 10:55 SW 6 10.00 Fair CLR 91.4 77 63% 105 30.14 0.0
14 10:35 SW 6 10.00 Fair CLR 91.4 77 63% 105 30.14 0.0
14 10:15 SW 7 10.00 Fair CLR 91.4 77 63% 105 30.14 0.0
14 09:55 W 6 10.00 Fair CLR 91.4 77 63% 105 30.14 0.0
14 09:35 W 6 10.00 A Few Clouds FEW110 89.6 77 67% 103 30.14 0.0
14 09:15 W 7 10.00 Fair CLR 87.8 78.8 75% 102 30.14 0.0
14 08:55 W 7 10.00 Fair CLR 87.8 78.8 75% 102 30.15 0.0
14 08:35 Vrbl 5 10.00 Fair CLR 87.8 80.6 79% 105 30.15 0.0
14 08:15 Calm 10.00 Fair CLR 86 80.6 84% 102 30.15 0.0
14 07:55 Calm 10.00 Fair CLR 86 80.6 84% 102 30.14 0.0
14 07:35 Calm 9.00 Fair CLR 84.2 80.6 89% 98 30.13 0.0
14 07:15 Calm 9.00 Fair CLR 80.6 80.6 100% 89 30.13 0.0
14 06:55 Calm 8.00 Fair CLR 78.8 78.8 100% 83 30.13 0.0
14 06:35 Calm 6.00 Fog/Mist CLR 78.8 78.8 100% 83 30.12 0.0
14 06:15 Calm 7.00 Fair CLR 78.8 78.8 100% 83 30.12 0.0
14 05:55 Calm 9.00 Fair CLR 78.8 78.8 100% 83 30.11 0.0
14 05:35 Calm 9.00 Fair CLR 78.8 78.8 100% 83 30.11 0.0
14 05:15 NW 3 9.00 A Few Clouds FEW016 78.8 78.8 100% 83 30.12 0.0
14 04:55 Calm 8.00 A Few Clouds FEW016 78.8 78.8 100% 83 30.11 0.0
14 04:35 Calm 9.00 Fair CLR 78.8 78.8 100% 83 30.11 0.0
14 04:15 Calm 9.00 Fair CLR 80.6 80.6 100% 89 30.11 0.0
14 03:55 Calm 9.00 Fair CLR 80.6 80.6 100% 89 30.11 0.0
14 03:35 Calm 9.00 Fair CLR 80.6 80.6 100% 89 30.11 0.0
14 03:15 Calm 9.00 Fair CLR 80.6 80.6 100% 89 30.11 0.0
14 02:55 Calm 10.00 Fair CLR 82.4 80.6 94% 94 30.12 0.0
14 02:35 Calm 10.00 Fair CLR 82.4 80.6 94% 94 30.12 0.0
14 02:15 SW 3 10.00 Fair CLR 82.4 80.6 94% 94 30.13 0.0
14 01:55 SW 3 10.00 Fair CLR 82.4 80.6 94% 94 30.13 0.0
14 01:35 Calm 10.00 Fair CLR 82.4 80.6 94% 94 30.14 0.0
14 01:15 SW 5 10.00 A Few Clouds FEW120 82.4 80.6 94% 94 30.14 0.0
14 00:55 SW 3 10.00 Fair CLR 82.4 80.6 94% 94 30.14 0.0
14 00:35 SW 5 10.00 Fair CLR 82.4 80.6 94% 94 30.15 0.0
14 00:15 S 5 10.00 A Few Clouds FEW017 82.4 78.8 89% 92 30.15 0.0
13 23:55 Calm 10.00 Partly Cloudy SCT120 80.6 78.8 94% 88 30.15 0.0
13 23:35 Calm 10.00 Mostly Cloudy BKN120 80.6 78.8 94% 88 30.15 0.0
13 23:15 Calm 10.00 Partly Cloudy SCT120 80.6 80.6 100% 89 30.16 0.0
13 22:55 Calm 10.00 A Few Clouds FEW120 82.4 78.8 89% 92 30.16 0.0
13 22:35 Calm 10.00 A Few Clouds FEW120 82.4 78.8 89% 92 30.16 0.0
13 22:15 Calm 10.00 Partly Cloudy SCT120 84.2 78.8 84% 96 30.16 0.0
13 21:55 SW 5 10.00 Mostly Cloudy BKN120 84.2 78.8 84% 96 30.15 0.0
13 21:35 S 5 10.00 Overcast OVC120 84.2 78.8 84% 96 30.15 0.0
13 21:15 S 6 10.00 Partly Cloudy SCT120 84.2 80.6 89% 98 30.15 0.0
13 20:55 S 7 10.00 Fair CLR 84.2 80.6 89% 98 30.15 0.0
13 20:35 S 6 10.00 A Few Clouds FEW016 84.2 80.6 89% 98 30.15 0.0
13 20:15 S 6 10.00 A Few Clouds FEW016 84.2 80.6 89% 98 30.14 0.0
13 19:55 S 6 10.00 Fair CLR 86 78.8 79% 99 30.14 0.0
13 19:35 S 3 10.00 Fair CLR 86 78.8 79% 99 30.14 0.0
13 19:15 S 3 10.00 Fair CLR 86 78.8 79% 99 30.14 0.0
13 18:55 S 5 10.00 Fair CLR 86 78.8 79% 99 30.14 0.0
13 18:35 S 7 10.00 Fair CLR 87.8 77 70% 100 30.13 0.0
13 18:15 S 7 10.00 Fair CLR 87.8 77 70% 100 30.13 0.0
13 17:55 S 10 10.00 Fair CLR 89.6 77 67% 103 30.13 0.0
13 17:35 SE 9 10.00 Fair CLR 89.6 77 67% 103 30.13 0.0
13 17:15 Vrbl 5 10.00 Fair CLR 91.4 77 63% 105 30.13 0.0
13 16:55 Vrbl 5 10.00 Fair CLR 91.4 77 63% 105 30.13 0.0
13 16:35 S 6 10.00 Thunderstorm in Vicinity CLR 89.6 75.2 63% 100 30.13 0.0
13 16:15 Vrbl 6 10.00 Fair CLR 91.4 75.2 59% 103 30.14 0.0
13 15:55 W 6 10.00 Thunderstorm in Vicinity CLR 91.4 75.2 59% 103 30.14 0.0
13 15:35 Vrbl 3 10.00 Fair CLR 89.6 75.2 63% 100 30.15 0.0
13 15:15 Calm 10.00 Thunderstorm in Vicinity CLR 91.4 77 63% 105 30.15 0.0
13 14:55 NW 5 10.00 Thunderstorm in Vicinity CLR 89.6 75.2 63% 100 30.16 0.0
13 14:35 W 5 10.00 Thunderstorm in Vicinity CLR 87.8 73.4 62% 96 30.16 0.0
13 14:15 NW 7 10.00 Thunderstorm in Vicinity NULL 86 73.4 66% 93 30.17 0.0
13 13:55 NW 10 G 17 10.00 Thunderstorm in Vicinity FEW020 SCT027 86 73.4 66% 93 30.17 0.0
13 13:35 SW 3 10.00 Thunderstorm in Vicinity FEW018 87.8 78.8 75% 102 30.17 0.0
13 13:15 SE 5 10.00 Thunderstorm CLR 86 78.8 79% 99 30.17 0.0
13 12:55 SE 6 10.00 Thunderstorm in Vicinity CLR 86 78.8 79% 99 30.17 0.0
13 12:35 SE 7 10.00 A Few Clouds FEW110 86 78.8 79% 99 30.18 0.0
13 12:15 SE 6 10.00 Mostly Cloudy BKN110 86 78.8 79% 99 30.18 0.0
13 11:55 E 3 10.00 Overcast OVC110 84.2 78.8 84% 96 30.19 0.0
13 11:35 E 3 10.00 Thunderstorm in Vicinity OVC110 84.2 78.8 84% 96 30.19 0.0
13 11:15 E 6 10.00 Overcast OVC110 84.2 78.8 84% 96 30.18 0.0
13 10:55 Calm 10.00 Thunderstorm in Vicinity BKN100 86 78.8 79% 99 30.18 0.0
13 10:35 Calm 10.00 Thunderstorm in Vicinity SCT100 86 77 75% 97 30.18 0.0
13 10:15 Calm 10.00 Mostly Cloudy FEW022 FEW055 BKN100 84.2 78.8 84% 96 30.18 0.0
13 09:55 Calm 10.00 Mostly Cloudy SCT019 SCT028 BKN110 86 78.8 79% 99 30.18 0.0
13 09:35 NE 3 10.00 Overcast BKN019 OVC110 84.2 78.8 84% 96 30.18 0.0
13 09:15 Calm 10.00 Mostly Cloudy FEW019 FEW060 BKN110 84.2 78.8 84% 96 30.17 0.0
13 08:55 Calm 10.00 Thunderstorm in Vicinity FEW060 SCT095 82.4 78.8 89% 92 30.17 0.0
13 08:35 Calm 10.00 Overcast OVC095 80.6 78.8 94% 88 30.16 0.0
13 08:15 Calm 10.00 Overcast OVC090 80.6 78.8 94% 88 30.16 0.0
13 07:55 Calm 10.00 Thunderstorm in Vicinity BKN090 80.6 78.8 94% 88 30.15 0.0
13 07:35 Calm 8.00 Fair CLR 77 77 100% 78 30.14 0.0
13 07:15 Calm 10.00 Thunderstorm in Vicinity CLR 77 77 100% 78 30.14 0.0
13 06:55 Calm 10.00 Fair CLR 77 77 100% 78 30.14 0.0 0.01
13 06:35 Calm 10.00 Partly Cloudy SCT090 78.8 77 94% 83 30.13 0.0
13 06:15 Calm 10.00 Overcast OVC090 78.8 77 94% 83 30.12 0.0
13 05:55 Calm 10.00 Overcast OVC085 77 77 100% 78 30.12 0.0
13 05:35 Calm 10.00 Mostly Cloudy BKN085 78.8 77 94% 83 30.11 0.0
13 05:15 Calm 10.00 Fair CLR 77 77 100% 78 30.11 0.0
13 04:55 Calm 10.00 Fair CLR 77 77 100% 78 30.1 0.0
13 04:35 Calm 9.00 Fair CLR 77 77 100% 78 30.09 0.0
13 04:15 Calm 9.00 A Few Clouds FEW090 77 77 100% 78 30.09 0.0
13 03:55 Calm 8.00 A Few Clouds FEW090 77 77 100% 78 30.08 0.0
13 03:35 Calm 10.00 Mostly Cloudy BKN090 78.8 77 94% 83 30.09 0.0
13 03:15 Calm 10.00 Overcast OVC090 77 77 100% 78 30.09 0.0
13 02:55 Calm 10.00 Partly Cloudy SCT090 78.8 77 94% 83 30.09 0.0
13 02:35 NW 3 10.00 Fair CLR 78.8 77 94% 83 30.1 0.0
13 02:15 NW 3 9.00 Fair CLR 78.8 78.8 100% 83 30.1 0.0
13 01:55 NW 3 10.00 Partly Cloudy SCT090 78.8 78.8 100% 83 30.1 0.0
13 01:35 Calm 10.00 Mostly Cloudy BKN090 BKN110 78.8 78.8 100% 83 30.1 0.0
13 01:15 Calm 10.00 Overcast SCT085 OVC110 78.8 78.8 100% 83 30.1 0.0
13 00:55 Calm 10.00 Overcast OVC085 82.4 77 84% 91 30.1 0.0
13 00:35 Calm 10.00 Mostly Cloudy BKN085 82.4 77 84% 91 30.11 0.0
13 00:15 S 5 10.00 Overcast OVC080 82.4 77 84% 91 30.11 0.0
12 23:55 SW 6 10.00 Mostly Cloudy BKN080 82.4 77 84% 91 30.11 0.0
12 23:35 S 8 10.00 Partly Cloudy SCT080 82.4 77 84% 91 30.11 0.0
12 23:15 S 9 10.00 Partly Cloudy SCT075 SCT085 SCT110 82.4 77 84% 91 30.11 0.0
12 22:55 S 8 10.00 Overcast BKN075 OVC085 84.2 77 79% 94 30.11 0.0
12 22:35 S 8 10.00 Mostly Cloudy FEW043 SCT065 BKN075 84.2 77 79% 94 30.11 0.0
12 22:15 S 7 10.00 Overcast SCT060 OVC080 84.2 77 79% 94 30.1 0.0
12 21:55 S 8 10.00 Overcast FEW025 OVC085 84.2 77 79% 94 30.09 0.0
12 21:35 S 8 10.00 Overcast SCT024 OVC085 84.2 77 79% 94 30.09 0.0
12 21:15 S 9 10.00 Overcast FEW022 OVC090 84.2 78.8 84% 96 30.08 0.0
12 20:55 S 7 10.00 Overcast OVC085 82.4 77 84% 91 30.08 0.0
12 20:35 S 5 10.00 Overcast OVC085 80.6 78.8 94% 88 30.08 0.0
12 20:15 Calm 10.00 Overcast BKN080 OVC100 82.4 80.6 94% 94 30.08 0.0
12 19:55 Calm 10.00 Mostly Cloudy BKN090 82.4 78.8 89% 92 30.07 0.0
Date Time (edt) Wind (mph) Vis. (mi.) Weather Sky Cond. Air Dwpt Max. Min. Relative Humidity Wind Chill (°F) Heat Index (°F) altimeter (in) sea level (mb) 1 hr 3 hr 6 hr
6 hour
Temperature (ºF) Pressure Precipitation (in)